Regional Weather Roundup
Issued by NWS

Home | Current Version | Previous Version | Graphics & Text | Print | Product List | Glossary On
Versions: 1 2 3 4 5 6 7 8 9 10 11 12 13 14 15 16 17 18 19 20 21 22 23 24 25 26 27 28 29 30 31 32 33 34 35 36 37 38 39 40 41 42 43 44 45 46 47 48 49 50
000
ASUS43 KBIS 300002
RWRND

NORTH DAKOTA REGIONAL WEATHER ROUNDUP
NATIONAL WEATHER SERVICE BISMARCK ND
700 PM CDT FRI MAY 29 2015

NOTE: "FAIR" INDICATES FEW OR NO CLOUDS BELOW 12,000 FEET WITH NO
SIGNIFICANT WEATHER AND/OR OBSTRUCTIONS TO VISIBILITY.


NDZ001>003-009>011-017-300100-
NORTHWEST NORTH DAKOTA

CITY           SKY/WX    TMP DP  RH WIND       PRES   REMARKS
WILLISTON      SUNNY     59  31  34 VRB3      30.28F
6HR MIN TEMP:  52; 6HR MAX TEMP:  61;

MINOT          SUNNY     56  31  38 NW8       30.27S
$$

NDZ018>021-031>035-040>046-300100-
SOUTHWEST NORTH DAKOTA

CITY           SKY/WX    TMP DP  RH WIND       PRES   REMARKS
BISMARCK       SUNNY     57  34  41 N13       30.26S
6HR MIN TEMP:  51; 6HR MAX TEMP:  58;

DICKINSON      SUNNY     56  35  45 NE10      30.26S
GARRISON         N/A     57  34  41 N8        30.27S
6HR MIN TEMP:  49; 6HR MAX TEMP:  57;

HETTINGER ARPT SUNNY     55  36  48 NE7       30.28S
$$

NDZ004>008-012>016-024-026-027-054-300100-
NORTHEAST NORTH DAKOTA

CITY           SKY/WX    TMP DP  RH WIND       PRES   REMARKS
GRAND FORKS    MOSUNNY   54  35  48 N22G32    30.20R
GRND FRKS AFB  MOSUNNY   53  33  46 N22G28    30.21R
DEVILS LAKE    SUNNY     54  30  40 N18       30.23S
$$

NDZ022-023-025-028>030-036>039-047>053-300100-
SOUTHEAST NORTH DAKOTA

CITY           SKY/WX    TMP DP  RH WIND       PRES   REMARKS
FARGO          MOSUNNY   56  37  49 N22G32    30.15S
6HR MIN TEMP:  47; 6HR MAX TEMP:  57;

JAMESTOWN      MOSUNNY   56  36  47 N20       30.20R
$$




USA.gov is the U.S. government's official web portal to all federal, state and local government web resources and services.